Skip Page Navigation
NASA JPL Caltech
NASA Logo - Jet Propulsion Laboratory + View the NASA Portal
+ Center for Near-Earth Object Studies
JPL Home Earth Solar System Stars & Galaxies Technology
JPL Solar System Dynamics
BODIES ORBITS EPHEMERIDES TOOLS PHYSICAL DATA DISCOVERY FAQ SITE MAP
JPL Small-Body Database Browser
Search: [ help ]  
34746 (2001 QE91)
Classification: Jupiter Trojan          SPK-ID: 2034746
Ephemeris | Orbit Diagram | Orbital Elements | Mission Design | Physical Parameters | Discovery Circumstances ]

[ show orbit diagram ]
Orbital Elements at Epoch 2459000.5 (2020-May-31.0) TDB
Reference: JPL 35 (heliocentric ecliptic J2000)
 Element Value Uncertainty (1-sigma)   Units 
e .03870094463371399 4.3601e-08  
a 5.159995927845281 9.2066e-08 au
q 4.960299211131551 2.8298e-07 au
i 27.42412779582381 4.1372e-06 deg
node 93.25402720910375 1.0874e-05 deg
peri 196.3437628817408 8.9002e-05 deg
M 289.0945861142572 9.1296e-05 deg
tp 2459843.736429860480
(2022-Sep-21.23642986)
0.0010879 TDB
period 4281.268497197386
11.72
0.00011458
3.137e-07
d
yr
n .08408722794089275 2.2505e-09 deg/d
Q 5.359692644559011 9.5629e-08 au
  Orbit Determination Parameters
   # obs. used (total)      2101  
   data-arc span      25952 days (71.05 yr)  
   first obs. used      1949-05-29  
   last obs. used      2020-06-17  
   planetary ephem.      DE431  
   SB-pert. ephem.      SB431-N16  
   condition code      0  
   norm. resid. RMS      .37987  
   source      ORB  
   producer      Otto Matic  
   solution date      2020-Jun-23 20:25:14  

Additional Information
 Earth MOID = 3.9483 au 
 Jupiter MOID = .196573 au 
 T_jup = 2.775 
[ show covariance matrix ]

Ephemeris | Orbit Diagram | Orbital Elements | Mission Design | Physical Parameters | Discovery Circumstances ]

Physical Parameter Table
Parameter Symbol Value Units Sigma Reference Notes
absolute magnitude H 9.9   n/a MPO474201  
diameter diameter 61.684 km 0.917 urn:nasa:pds:neowise_diameters_albedos::2.0[jupiter_trojans] (http://adsabs.harvard.edu/abs/2012ApJ...759...49G)  
rotation period rot_per 19.633 h n/a LCDB (Rev. 2019-August); Warner et al., 2009 Published Reference List:
[Molnar, L.A.; Haegert, M.J.; Hoogenboom, K.M. (2008) Minor Planet Bull. 35, 82-84.]
geometric albedo albedo 0.061   0.004 urn:nasa:pds:neowise_diameters_albedos::2.0[jupiter_trojans] (http://adsabs.harvard.edu/abs/2012ApJ...759...49G)  

34746 (2001 QE91)          Discovered 2001-Aug-22 by LINEAR at Socorro
Reference: 20020128/Numbers.arcLast Updated: 2004-04-19

Alternate Designations
 2001 QE91 = 1949 KS = 1990 VD1 = 1991 XC5 
Ephemeris | Orbit Diagram | Orbital Elements | Mission Design | Physical Parameters | Discovery Circumstances ]
ABOUT SSD CREDITS/AWARDS PRIVACY/COPYRIGHT GLOSSARY LINKS
FirstGov 2020-Aug-10 17:01 UT
(server date/time)  
NASA Home Page
Site Manager:   Ryan S. Park
Webmaster  Alan B. Chamberlin